Managua, Nicaragua

2:19 AM CST on February 25, 2017 (GMT -0600)
Augusto Cesar Sandino

Weather History for MNMG - January, 2013

Change the Weather History Date:

Thursday, January 10, 2013

  Actual Average Record
Temperature  
Mean Temperature 85 °F -  
Max Temperature 93 °F 88 °F 93 °F (2013)
Min Temperature 77 °F 68 °F 33 °F (1997)
Cooling Degree Days 20    
Growing Degree Days 35 (Base 50)    
Moisture  
Dew Point 69 °F    
Average Humidity 66    
Maximum Humidity 83    
Minimum Humidity 41    
Precipitation  
Precipitation 0.00 in - - ()
Sea Level Pressure  
Sea Level Pressure 29.84 in    
Wind  
Wind Speed 7 mph ()    
Max Wind Speed 21 mph    
Max Gust Speed -    
Visibility 6.2 miles    
Events      
Averages and records for this station are not official NWS values.
T = Trace of Precipitation, MM = Missing Value Source: Averaged Metar Reports

Daily Weather History Graph

Daily Weather History Graph

Search for Another Location

Airport or City:

Trip Planner

Search our weather history database for the weather conditions in past years. The results will help you decide how hot, cold, wet, or windy it might be!

Date:

Astronomy

Jan. 10, 2013 Rise Set
Actual Time 6:08 AM CST 5:36 PM CST
Civil Twilight 5:45 AM CST 5:59 PM CST
Nautical Twilight 5:19 AM CST 6:25 PM CST
Astronomical Twilight 4:53 AM CST 6:51 PM CST
Moon 4:48 AM CST (1/10) 4:40 PM CST (1/10)
Length of Visible Light 12h 13m
Length of Day
11h 27m
Waning Crescent, 2% of the Moon is Illuminated
Jan 10
Waning Crescent
Jan 11
New
Jan 18
First Quarter
Jan 26
Full
Feb 3
Last Quarter

Hourly Weather History & Observations

Time (CST) Temp. Heat Index Dew Point Humidity Pressure Visibility Wind Dir Wind Speed Gust Speed Precip Events Conditions
12:00 AM 77.0 °F - 71.6 °F 83% 29.86 in 6.2 mi Calm Calm - N/A   Scattered Clouds
1:00 AM 77.0 °F - 71.6 °F 83% 29.86 in 6.2 mi Calm Calm - N/A   Scattered Clouds
2:00 AM 77.0 °F - 69.8 °F 78% 29.83 in 6.2 mi East 4.6 mph - N/A   Scattered Clouds
3:00 AM 77.0 °F - 69.8 °F 78% 29.83 in 6.2 mi SE 11.5 mph - N/A   Scattered Clouds
4:00 AM 77.0 °F - 69.8 °F 78% 29.83 in 6.2 mi SE 6.9 mph - N/A   Scattered Clouds
5:00 AM 78.8 °F - 69.8 °F 74% 29.86 in 6.2 mi Calm Calm - N/A   Scattered Clouds
6:00 AM 77.0 °F - 69.8 °F 78% 29.86 in 5.6 mi East 4.6 mph - N/A   Scattered Clouds
7:00 AM 78.8 °F - 71.6 °F 78% 29.89 in 6.2 mi ENE 4.6 mph - N/A   Scattered Clouds
8:00 AM 82.4 °F 87.2 °F 71.6 °F 70% 29.89 in 6.2 mi East 16.1 mph - N/A   Partly Cloudy
9:00 AM 86.0 °F 91.8 °F 71.6 °F 62% 29.92 in 6.2 mi East 11.5 mph - N/A   Partly Cloudy
10:00 AM 87.8 °F 92.6 °F 69.8 °F 55% 29.89 in 6.2 mi East 18.4 mph - N/A   Scattered Clouds
11:00 AM 89.6 °F 93.4 °F 68.0 °F 49% 29.89 in 6.2 mi East 18.4 mph - N/A   Scattered Clouds
12:00 PM 91.4 °F 94.0 °F 66.2 °F 43% 29.86 in 6.2 mi East 16.1 mph - N/A   Partly Cloudy
1:00 PM 93.2 °F 96.2 °F 66.2 °F 41% 29.83 in 6.2 mi East 18.4 mph - N/A   Partly Cloudy
2:00 PM 89.6 °F 92.2 °F 66.2 °F 46% 29.80 in 6.2 mi ENE 20.7 mph - N/A   Partly Cloudy
3:00 PM 87.8 °F - - N/A% 29.80 in 6.2 mi East 18.4 mph - N/A   Scattered Clouds
4:00 PM 87.8 °F 90.4 °F 66.2 °F 49% 29.77 in 6.2 mi ENE 18.4 mph - N/A   Partly Cloudy
5:00 PM 86.0 °F 89.4 °F 68.0 °F 55% 29.77 in 6.2 mi East 18.4 mph - N/A   Partly Cloudy
6:00 PM 84.2 °F 88.4 °F 69.8 °F 62% 29.80 in 6.2 mi East 13.8 mph - N/A   Partly Cloudy
7:00 PM 82.4 °F 87.2 °F 71.6 °F 70% 29.80 in 6.2 mi East 9.2 mph - N/A   Partly Cloudy
8:00 PM 82.4 °F 85.4 °F 68.0 °F 62% 29.83 in 6.2 mi East 9.2 mph - N/A   Partly Cloudy
9:00 PM 80.6 °F 83.2 °F 68.0 °F 65% 29.86 in 6.2 mi ESE 4.6 mph - N/A   Partly Cloudy
10:00 PM 78.8 °F - 69.8 °F 74% 29.89 in 6.2 mi SSE 4.6 mph - N/A   Partly Cloudy
11:00 PM 80.6 °F 84.6 °F 71.6 °F 74% 29.86 in 6.2 mi Calm Calm - N/A   Partly Cloudy